カタログに戻る

COSMOS 2251 DEB

運用中LEO
NORAD 33938·DEBRIS·🇷🇺 Russia

打ち上げ Jun 16, 1993 から Plesetsk Cosmodrome

Loading…

次のパス (今後24時間)

TLE

最新Source: Space-Track

元期: Sep 14, 2026, 11:09 UTC

1 33938U 93036ET  26257.46521142  .00000960  00000-0  26751-3 0  9993
2 33938  74.0445  51.9758 0015718  66.8337 313.1244 14.47603441923895

AllMySatでCOSMOS 2251 DEBをリアルタイム追跡

Download on the App Store